Boonton, New Jersey, United States (07005)
Lat: 40.90N, Lon: 74.41W
Wx Zone: NJZ008
Local Info
Past Weather Observations for Thursday, July 2, 2015

NOTE: This archive is for the closest National Weather Service station to Boonton. Information may differ from the station used for current weather conditions.

Click here for Long-term Archive

Time Weather Temperature Dewpoint Humidity Pressure Winds Precip Visibility
23:53
Partly Cloudy
66°F / 19°C 61°F / 16°C 83% 29.92 in
(1013 mb)
Calm - 10SM
22:53
Partly Cloudy
68°F / 20°C 61°F / 16°C 78% 29.89 in
(1012 mb)
Calm - 10SM
21:53
Mostly Cloudy
72°F / 22°C 63°F / 17°C 73% 29.89 in
(1012 mb)
Calm - 9SM
20:53
Clear
72°F / 22°C 61°F / 16°C 69% 29.89 in
(1012 mb)
Calm - 10SM
19:53
Clear
73°F / 23°C 61°F / 16°C 65% 29.89 in
(1012 mb)
Calm - 10SM
18:53
Clear
75°F / 24°C 59°F / 15°C 57% 29.89 in
(1012 mb)
Calm - 10SM
17:53
Clear
75°F / 24°C 59°F / 15°C 57% 29.89 in
(1012 mb)
Calm - 10SM
16:53
Clear
79°F / 26°C 57°F / 14°C 48% 29.86 in
(1011 mb)
Variable 3.5 mph
(Variable 6 kph)
- 10SM
15:53
Clear
79°F / 26°C 57°F / 14°C 48% 29.89 in
(1012 mb)
Variable 3.5 mph
(Variable 6 kph)
- 10SM
14:53
Clear
79°F / 26°C 57°F / 14°C 48% 29.89 in
(1012 mb)
NNE 3.5 mph
(NNE 6 kph)
- 10SM
13:53
Clear
79°F / 26°C 59°F / 15°C 51% 29.92 in
(1013 mb)
NNE 5.8 mph
(NNE 9 kph)
- 10SM
12:53
Mostly Cloudy
79°F / 26°C 57°F / 14°C 48% 29.92 in
(1013 mb)
Variable 3.5 mph
(Variable 6 kph)
- 10SM
11:53
Partly Cloudy
79°F / 26°C 55°F / 13°C 45% 29.92 in
(1013 mb)
Calm - 10SM
10:53
Clear
77°F / 25°C 57°F / 14°C 51% 29.92 in
(1013 mb)
Calm - 10SM
09:53
Clear
75°F / 24°C 59°F / 15°C 57% 29.92 in
(1013 mb)
Calm - 10SM
08:53
Clear
73°F / 23°C 57°F / 14°C 57% 29.95 in
(1014 mb)
Variable 3.5 mph
(Variable 6 kph)
- 10SM
07:53
Clear
72°F / 22°C 57°F / 14°C 61% 29.95 in
(1014 mb)
Calm - 10SM
06:53
Clear
68°F / 20°C 61°F / 16°C 78% 29.92 in
(1013 mb)
Calm - 7SM
05:53
Partly Cloudy
Fog And Mist
64°F / 18°C 61°F / 16°C 88% 29.92 in
(1013 mb)
Calm - 5SM
04:53
Clear
Fog And Mist
61°F / 16°C 57°F / 14°C 88% 29.92 in
(1013 mb)
Calm - 4SM
03:53
Clear
Fog And Mist
63°F / 17°C 59°F / 15°C 88% 29.89 in
(1012 mb)
Calm - 5SM
02:53
Clear
Fog And Mist
63°F / 17°C 59°F / 15°C 88% 29.89 in
(1012 mb)
Calm - 6SM
01:53
Clear
64°F / 18°C 59°F / 15°C 83% 29.89 in
(1012 mb)
Calm - 7SM
00:53
Clear
66°F / 19°C 61°F / 16°C 83% 29.89 in
(1012 mb)
S 6.9 mph
(S 11 kph)
- 8SM
Time Weather Temperature Dewpoint Humidity Pressure Winds Precip Visibility


Weather for websites

WeatherForYou.com, LLC is not responsible for any damages or problems caused by this service. Current weather conditions are obtained from the closest station including government and personal stations which may have varying degrees of accuracy. Weather forecasts are derived from the NOAA NDFD. Like all things, this site belongs to Jesus Christ... He just trusts us to maintain it. If you have any questions or comments email webmaster@weatherforyou.com

Copyright © 2015, WeatherForYou.com LLC. All rights reserved.